Location: Te Maire Creek
(41.1333°S, 175.9167°E)
Time: 22:01:07
(UTC+00:00)

Cosmos 2333 - Pass Details

Date: 19 May 2024
Orbit: 828 x 866 km, 70.9° (Epoch: 22 June)

Event Time Altitude Azimuth Distance (km) Brightness Sun altitude
Rises 18:21:11 0° 335° (NNW) 3,440 7.3 -11.5°
Reaches altitude 10° 18:23:38 10° 333° (NNW) 2,509 6.6 -11.1°
Maximum altitude 18:29:25 80° 247° (WSW) 889 4.2 -10.0°
Drops below altitude 10° 18:35:16 10° 158° (SSE) 2,524 6.7 -9.0°
Sets 18:37:44 0° 157° (SSE) 3,461 7.4 -8.5°
